Location: Unspecified
(0.0000°N, 0.0000°E)
Time: 18:31:09
(UTC+00:00)

STARLINK-1172 - Pass Details

Date: 19 June 2025
Orbit: 546 x 548 km, 53.1° (Epoch: 20 July)

Event Time Altitude Azimuth Distance (km) Brightness Sun altitude
Rises 18:19:20 0° 330° (NNW) 2,701 8.1 -4.1°
Reaches altitude 10° 18:21:34 10° 333° (NNW) 1,811 7.1 -4.6°
Maximum altitude 18:25:40 68° 56° (ENE) 590 3.7 -5.5°
Drops below altitude 10° 18:29:46 10° 139° (SE) 1,818 5.7 -6.5°
Enters shadow 18:30:45 - 141° (SE) 2,208 6.1 -6.7°
